Weather History for Farmington, NM

Change the Weather History Date:

Monday, April 8, 2013

  Actual Average Record
Temperature  
Mean Temperature 56 °F -  
Max Temperature 72 °F 60 °F 78 °F (1989)
Min Temperature 39 °F 31 °F 18 °F (1980)
Degree Days  
Heating Degree Days 10    
Growing Degree Days 6 (Base 50)    
Moisture  
Dew Point 22 °F    
Average Humidity 31    
Maximum Humidity 82    
Minimum Humidity 5    
Precipitation  
Precipitation 0.01 in - - ()
Sea Level Pressure  
Sea Level Pressure 29.43 in    
Wind  
Wind Speed 17 mph (SW)    
Max Wind Speed 39 mph    
Max Gust Speed 58 mph    
Visibility 7 miles    
Events      
Averages and records for this station are not official NWS values.
T = Trace of Precipitation, MM = Missing Value Source: NWS Daily Summary

Daily Weather History Graph

Daily Weather History Graph

Search for Another Location

Airport:

Trip Planner

Search our weather history database for the weather conditions in past years. The results will help you decide how hot, cold, wet, or windy it might be!

Date:

Astronomy

Apr. 08, 2013 Rise Set
Actual Time 6:48 AM MDT 7:41 PM MDT
Civil Twilight 6:21 AM MDT 8:07 PM MDT
Nautical Twilight 5:50 AM MDT 8:39 PM MDT
Astronomical Twilight 5:18 AM MDT 9:11 PM MDT
Moon 5:37 AM MDT (4/8) 6:20 PM MDT (4/8)
Length of Visible Light 13h 46m
Length of Day
12h 53m
Waning Crescent, 3% of the Moon is Illuminated
Apr 8
Waning Crescent
Apr 10
New
Apr 18
First Quarter
Apr 25
Full
May 2
Last Quarter

Hourly Weather History & Observations

Time (MDT) Temp. Windchill Dew Point Humidity Pressure Visibility Wind Dir Wind Speed Gust Speed Precip Events Conditions
12:53 AM 41.0 °F 36.4 °F 12.0 °F 31% 29.66 in 10.0 mi NNE 6.9 mph - N/A   Clear
1:53 AM 42.1 °F 38.4 °F 12.9 °F 31% 29.64 in 10.0 mi NE 5.8 mph - N/A   Clear
2:53 AM 43.0 °F 40.3 °F 16.0 °F 34% 29.60 in 10.0 mi ESE 4.6 mph - N/A   Clear
3:53 AM 43.0 °F 38.2 °F 17.1 °F 35% 29.57 in 10.0 mi NE 8.1 mph - N/A   Clear
5:53 AM 43.0 °F - 19.9 °F 40% 29.55 in 10.0 mi Calm Calm - N/A   Clear
6:53 AM 46.0 °F 43.1 °F 23.0 °F 40% 29.54 in 10.0 mi Variable 5.8 mph - N/A   Clear
7:53 AM 48.9 °F - 25.0 °F 39% 29.55 in 10.0 mi East 10.4 mph - N/A   Clear
8:53 AM 55.0 °F - 26.1 °F 33% 29.52 in 10.0 mi SSE 16.1 mph - N/A   Clear
9:53 AM 59.0 °F - 28.0 °F 31% 29.50 in 10.0 mi South 17.3 mph 27.6 mph N/A   Mostly Cloudy
10:53 AM 61.0 °F - 28.9 °F 30% 29.47 in 10.0 mi SSE 20.7 mph 27.6 mph N/A   Mostly Cloudy
11:38 AM 66.2 °F - 26.6 °F 23% 29.52 in 8.0 mi SSW 21.9 mph 31.1 mph N/A   Overcast
11:53 AM 64.9 °F - 26.1 °F 23% 29.42 in 7.0 mi South 25.3 mph 40.3 mph N/A   Overcast
12:53 PM 69.1 °F - 24.1 °F 18% 29.35 in 9.0 mi South 24.2 mph 40.3 mph N/A   Overcast
1:19 PM 68.0 °F - 21.2 °F 17% 29.43 in 10.0 mi SSW 18.4 mph 38.0 mph N/A   Mostly Cloudy
1:45 PM 69.8 °F - 19.4 °F 15% 29.39 in 9.0 mi SSW 27.6 mph 38.0 mph N/A   Mostly Cloudy
1:53 PM 71.1 °F - 15.1 °F 12% 29.26 in 6.0 mi SSW 29.9 mph 44.9 mph N/A   Haze
2:53 PM 70.0 °F - 16.0 °F 13% 29.22 in 3.0 mi SSW 28.8 mph 54.1 mph N/A   Haze
3:04 PM 69.8 °F - 15.8 °F 13% 29.34 in 2.0 mi SSW 38.0 mph 52.9 mph N/A   Haze
3:12 PM 69.8 °F - 14.0 °F 12% 29.34 in 1.5 mi SSW 36.8 mph 56.4 mph N/A   Haze
3:25 PM 69.8 °F - 15.8 °F 13% 29.32 in 2.0 mi North - - N/A   Haze
3:32 PM 69.8 °F - 12.2 °F 11% 29.33 in 1.8 mi SSW 29.9 mph 51.8 mph N/A   Haze
3:36 PM 68.0 °F - 15.8 °F 13% 29.32 in 2.5 mi SSW 29.9 mph 50.6 mph N/A   Haze
3:49 PM 68.0 °F - 12.2 °F 12% 29.31 in 1.8 mi SSW 35.7 mph 51.8 mph N/A   Haze
3:53 PM 69.1 °F - 12.9 °F 11% 29.18 in 2.0 mi SSW 35.7 mph 51.8 mph N/A   Haze
4:03 PM 69.8 °F - 14.0 °F 12% 29.31 in 4.0 mi SSW 33.4 mph 47.2 mph N/A   Haze
4:26 PM 66.2 °F - 12.2 °F 12% 29.31 in 2.5 mi SSW 31.1 mph 49.5 mph N/A   Haze
4:50 PM 66.2 °F - 14.0 °F 13% 29.32 in 1.2 mi SW 33.4 mph 57.5 mph N/A   Haze
4:53 PM 66.0 °F - 15.1 °F 14% 29.23 in 1.2 mi SW 28.8 mph 52.9 mph N/A   Haze
5:02 PM 64.4 °F - 15.8 °F 15% 29.33 in 2.0 mi SW 36.8 mph 48.3 mph N/A   Haze
5:30 PM 57.2 °F - 24.8 °F 29% 29.38 in 0.8 mi West 39.1 mph 54.1 mph N/A   Haze
5:39 PM 53.6 °F - 30.2 °F 41% 29.41 in 1.0 mi West 38.0 mph 50.6 mph N/A   Haze
5:53 PM 51.1 °F - 32.0 °F 48% 29.37 in 2.5 mi WNW 28.8 mph 46.0 mph N/A   Haze
6:14 PM 48.2 °F - 32.0 °F 54% 29.47 in 4.0 mi WNW 31.1 mph 42.6 mph N/A   Haze
6:53 PM 44.1 °F 34.2 °F 30.0 °F 58% 29.45 in 10.0 mi WNW 28.8 mph 38.0 mph N/A   Mostly Cloudy
7:00 PM 42.8 °F 31.9 °F 28.4 °F 57% 29.49 in 10.0 mi WNW 32.2 mph 43.7 mph N/A   Partly Cloudy
7:53 PM 41.0 °F 32.5 °F 28.9 °F 62% 29.47 in 10.0 mi NW 17.3 mph 29.9 mph N/A   Partly Cloudy
8:53 PM 41.0 °F 35.2 °F 30.0 °F 65% 29.48 in 10.0 mi WNW 9.2 mph - 0.00 in   Overcast
9:53 PM 39.0 °F 33.4 °F 34.0 °F 82% 29.52 in 10.0 mi SW 8.1 mph - 0.01 in   Overcast
10:53 PM 39.9 °F 37.8 °F 32.0 °F 73% 29.49 in 10.0 mi West 3.5 mph - N/A   Overcast
11:53 PM 39.9 °F 34.5 °F 32.0 °F 73% 29.47 in 10.0 mi East 8.1 mph - N/A   Overcast